Weather in Zonalnoe

Russia / Altai Krai     52°39′57″N   84°56′10″E
temp.,
°C
wind,
m/s
gust,
m/s
humid.,
%
clouds,
%
prec.,
mm/h
press.,
hPa
HPBL,
m
14 april, wed
wed1401:00−3w2397100 0.0 103669
04:000wnw368853 0.0 1035160
07:00−3w359797 0.0 1036169
10:000sw4694100 0.1 1036338
13:00+1sw47100100 0.1 1035384
16:00+1wsw49100100 0.1 1033311
19:00+1sw49100100 0.6 1031257
22:00+1ssw41297100 0.0 1030252
15 april, thu
thu1501:00+1sw3790100 0.0 1028110
04:00+1wsw3796100 0.0 1028149
07:00+1sw2399100 0.1 102868
10:00+1ssw12100100 0.0 102847
13:00+1s11100100 0.1 102823
16:00+1s11100100 0.0 102734
19:00+1sse11100100 0.1 102737
22:00+1s23100100 0.0 102677
16 april, fri
fri1601:00+1s23100100 0.0 102582
04:00+1s23100100 0.0 102490
07:00+1sse24100100 0.0 102499
10:00+2sse2310098 0.0 102379
13:00+4s239986 0.0 102181
16:00+9s349550 0.0 101989
19:00+7s45959 0.0 101853
22:00+3s33901 0.0 101729
17 april, sat
sat1701:00+3s338817 0.0 101619
04:00+4wsw1185100 0.0 101410
07:00+3nne61097100 0.0 1015262
10:00+1ne61193100 1.3 1016381
13:00+1nne5898100 4.0 1017388
16:00+2ne2496100 0.6 1016240
19:00+2ssw119899 0.7 101652
22:00+1sw2398100 0.0 101669
18 april, sun
sun1801:00+1sw379791 0.0 1015212
04:00+1w3896100 0.0 1015301
07:00+1wsw399566 0.1 1016268
10:00+3w5976100 0.0 1016923
13:00+6w4756100 0.0 10161570
16:00+6w2457100 0.0 10151381
19:00+4s5790100 0.2 1015350
22:00+3sse4695100 0.1 1014280